• En España
  • Lista de países
  • Para 7 días
  • Temperatura del agua
  • Mapa Satelital
  • El tiempo en el mapa
  • Informadores
  • user-avatar
    Iniciar sesión

    Tiempo cada hora Dorobino

    Hoy, 19 Septiembre, Miércoles

    Tiempo Temperatura Precipitaciones Viento Presión Humedad
    00:00 +10°C° 0 mm 3 mps 743 mmHg 91%
    01:00 +9°C° 0 mm 3 mps 743 mmHg 92%
    02:00 +9°C° 0 mm 3 mps 743 mmHg 92%
    03:00 +9°C° 0 mm 2 mps 743 mmHg 93%
    04:00 +9°C° 0 mm 2 mps 744 mmHg 94%
    05:00 +9°C° 0 mm 2 mps 744 mmHg 94%
    06:00 +8°C° 0 mm 3 mps 744 mmHg 94%
    07:00 +10°C° 0 mm 3 mps 744 mmHg 89%
    08:00 +11°C° 0 mm 3 mps 744 mmHg 84%
    09:00 +13°C° 0 mm 4 mps 744 mmHg 80%
    10:00 +14°C° 0 mm 4 mps 744 mmHg 74%
    11:00 +16°C° 0 mm 5 mps 744 mmHg 68%
    12:00 +19°C° 0 mm 6 mps 744 mmHg 62%
    13:00 +20°C° 0 mm 6 mps 743 mmHg 62%
    14:00 +20°C° 0 mm 6 mps 743 mmHg 62%
    15:00 +21°C° 0 mm 6 mps 743 mmHg 61%
    16:00 +21°C° 0 mm 5 mps 743 mmHg 66%
    17:00 +20°C° 0 mm 5 mps 743 mmHg 70%
    18:00 +19°C° 0 mm 4 mps 743 mmHg 75%
    19:00 +18°C° 0 mm 4 mps 743 mmHg 78%
    20:00 +17°C° 0 mm 4 mps 743 mmHg 80%
    21:00 +15°C° 0 mm 4 mps 743 mmHg 83%
    22:00 +15°C° 0 mm 4 mps 743 mmHg 85%
    23:00 +15°C° 0 mm 4 mps 743 mmHg 87%

    Mañana, 20 Septiembre, Jueves

    Tiempo Temperatura Precipitaciones Viento Presión Humedad
    00:00 +14°C° 0 mm 4 mps 743 mmHg 88%
    01:00 +14°C° 0 mm 4 mps 743 mmHg 90%
    02:00 +14°C° 0 mm 4 mps 743 mmHg 92%
    03:00 +13°C° 0 mm 4 mps 743 mmHg 94%
    04:00 +13°C° 0 mm 4 mps 742 mmHg 94%
    05:00 +13°C° 0 mm 4 mps 742 mmHg 95%
    06:00 +13°C° 0 mm 4 mps 742 mmHg 95%
    07:00 +14°C° 0 mm 4 mps 742 mmHg 91%
    08:00 +17°C° 0 mm 4 mps 742 mmHg 87%
    09:00 +17°C° 0 mm 5 mps 742 mmHg 83%
    10:00 +19°C° 0 mm 5 mps 742 mmHg 78%
    11:00 +21°C° 0 mm 5 mps 742 mmHg 72%
    12:00 +23°C° 0 mm 5 mps 743 mmHg 66%
    13:00 +23°C° 0 mm 5 mps 743 mmHg 65%
    14:00 +25°C° 0 mm 5 mps 743 mmHg 63%
    15:00 +25°C° 0 mm 5 mps 743 mmHg 62%
    16:00 +23°C° 0 mm 4 mps 743 mmHg 66%
    17:00 +22°C° 0 mm 4 mps 743 mmHg 71%
    18:00 +21°C° 0 mm 3 mps 743 mmHg 76%
    19:00 +20°C° 0 mm 3 mps 743 mmHg 79%
    20:00 +18°C° 0 mm 3 mps 743 mmHg 83%
    21:00 +17°C° 0 mm 2 mps 743 mmHg 86%
    22:00 +17°C° 0 mm 2 mps 743 mmHg 87%
    23:00 +16°C° 0 mm 2 mps 744 mmHg 88%

    Pasado mañana, 21 Septiembre, Viernes

    Tiempo Temperatura Precipitaciones Viento Presión Humedad
    00:00 +16°C° 0 mm 2 mps 744 mmHg 89%
    01:00 +15°C° 0 mm 2 mps 744 mmHg 89%
    02:00 +15°C° 0 mm 1 mps 744 mmHg 89%
    03:00 +15°C° 0 mm 1 mps 744 mmHg 90%
    04:00 +14°C° 0 mm 1 mps 745 mmHg 90%
    05:00 +14°C° 0 mm 1 mps 745 mmHg 90%
    06:00 +14°C° 0 mm 1 mps 745 mmHg 91%
    07:00 +15°C° 0 mm 1 mps 745 mmHg 86%
    08:00 +16°C° 0 mm 1 mps 746 mmHg 81%
    09:00 +19°C° 0 mm 1 mps 746 mmHg 77%
    10:00 +20°C° 0 mm 1 mps 746 mmHg 71%
    11:00 +22°C° 0 mm 1 mps 746 mmHg 65%
    12:00 +23°C° 0 mm 1 mps 746 mmHg 59%
    13:00 +24°C° 0 mm 1 mps 746 mmHg 57%
    14:00 +24°C° 0 mm 1 mps 746 mmHg 54%
    15:00 +25°C° 0 mm 1 mps 746 mmHg 51%
    16:00 +24°C° 0 mm 1 mps 746 mmHg 55%
    17:00 +23°C° 0 mm 1 mps 746 mmHg 60%
    18:00 +22°C° 0 mm 1 mps 746 mmHg 64%
    19:00 +21°C° 0 mm 1 mps 746 mmHg 67%
    20:00 +20°C° 0 mm 1 mps 746 mmHg 69%
    21:00 +19°C° 0 mm 1 mps 746 mmHg 71%
    22:00 +18°C° 0 mm 1 mps 746 mmHg 73%
    23:00 +17°C° 0 mm 2 mps 746 mmHg 74%

    22 Septiembre, Sábado

    Tiempo Temperatura Precipitaciones Viento Presión Humedad
    00:00 +17°C° 0 mm 2 mps 746 mmHg 76%
    01:00 +16°C° 0 mm 2 mps 746 mmHg 77%
    02:00 +16°C° 0 mm 2 mps 746 mmHg 78%
    03:00 +16°C° 0 mm 2 mps 746 mmHg 79%
    04:00 +15°C° 0 mm 2 mps 745 mmHg 80%
    05:00 +14°C° 0 mm 3 mps 745 mmHg 80%
    06:00 +14°C° 0 mm 3 mps 745 mmHg 81%
    07:00 +16°C° 0 mm 3 mps 745 mmHg 77%
    08:00 +17°C° 0 mm 3 mps 745 mmHg 73%
    09:00 +19°C° 0 mm 4 mps 745 mmHg 69%
    10:00 +20°C° 0 mm 4 mps 745 mmHg 65%
    11:00 +22°C° 0 mm 4 mps 745 mmHg 61%
    12:00 +25°C° 0 mm 5 mps 744 mmHg 57%
    13:00 +25°C° 0 mm 5 mps 744 mmHg 55%
    14:00 +25°C° 0 mm 5 mps 744 mmHg 54%
    15:00 +26°C° 0 mm 5 mps 743 mmHg 52%
    16:00 +25°C° 0 mm 4 mps 743 mmHg 57%
    17:00 +23°C° 0 mm 4 mps 743 mmHg 62%
    18:00 +21°C° 0 mm 3 mps 742 mmHg 67%
    19:00 +21°C° 0 mm 3 mps 742 mmHg 68%
    20:00 +20°C° 0 mm 3 mps 742 mmHg 69%
    21:00 +19°C° 0 mm 4 mps 742 mmHg 70%
    22:00 +19°C° 0 mm 4 mps 741 mmHg 70%
    23:00 +18°C° 0 mm 4 mps 741 mmHg 70%

    23 Septiembre, Domingo

    Tiempo Temperatura Precipitaciones Viento Presión Humedad
    00:00 +18°C° 0 mm 4 mps 741 mmHg 70%
    01:00 +18°C° 0 mm 4 mps 740 mmHg 69%
    02:00 +17°C° 0 mm 4 mps 740 mmHg 69%
    03:00 +17°C° 0 mm 4 mps 740 mmHg 68%
    04:00 +17°C° 0 mm 4 mps 739 mmHg 68%
    05:00 +15°C° 0 mm 4 mps 739 mmHg 68%
    06:00 +15°C° 0 mm 4 mps 738 mmHg 68%
    07:00 +17°C° 0 mm 4 mps 738 mmHg 66%
    08:00 +17°C° 0 mm 5 mps 737 mmHg 63%
    09:00 +19°C° 0 mm 5 mps 737 mmHg 61%
    10:00 +20°C° 0 mm 6 mps 736 mmHg 59%
    11:00 +21°C° 0 mm 6 mps 736 mmHg 57%
    12:00 +22°C° 0 mm 6 mps 736 mmHg 55%
    13:00 +21°C° 0.1 mm 6 mps 735 mmHg 60%
    14:00 +20°C° 0.1 mm 6 mps 735 mmHg 64%
    15:00 +19°C° 0.1 mm 6 mps 735 mmHg 68%
    16:00 +15°C° 0.5 mm 6 mps 735 mmHg 74%
    17:00 +13°C° 0.5 mm 6 mps 736 mmHg 79%
    18:00 +9°C° 0.5 mm 6 mps 736 mmHg 85%
    19:00 +8°C° 0.4 mm 6 mps 736 mmHg 85%
    20:00 +8°C° 0.4 mm 6 mps 737 mmHg 84%
    21:00 +8°C° 0.4 mm 7 mps 737 mmHg 84%
    22:00 +8°C° 0.2 mm 6 mps 737 mmHg 84%
    23:00 +8°C° 0.2 mm 6 mps 737 mmHg 84%

    24 Septiembre, Lunes

    Tiempo Temperatura Precipitaciones Viento Presión Humedad
    00:00 +8°C° 0.2 mm 5 mps 737 mmHg 85%
    01:00 +7°C° 0 mm 5 mps 738 mmHg 86%
    02:00 +7°C° 0 mm 5 mps 738 mmHg 88%
    03:00 +7°C° 0 mm 4 mps 738 mmHg 89%
    04:00 +6°C° 0 mm 4 mps 738 mmHg 90%
    05:00 +6°C° 0 mm 4 mps 738 mmHg 92%
    06:00 +7°C° 0 mm 3 mps 738 mmHg 93%
    07:00 +7°C° 0 mm 3 mps 738 mmHg 90%
    08:00 +7°C° 0 mm 4 mps 739 mmHg 86%
    09:00 +8°C° 0 mm 4 mps 739 mmHg 82%
    10:00 +11°C° 0 mm 4 mps 739 mmHg 75%
    11:00 +12°C° 0 mm 4 mps 739 mmHg 68%
    12:00 +14°C° 0 mm 3 mps 739 mmHg 60%
    13:00 +14°C° 0 mm 3 mps 739 mmHg 57%
    14:00 +16°C° 0 mm 3 mps 739 mmHg 54%
    15:00 +16°C° 0 mm 2 mps 739 mmHg 51%
    16:00 +15°C° 0 mm 2 mps 739 mmHg 55%
    17:00 +14°C° 0 mm 1 mps 738 mmHg 59%
    18:00 +13°C° 0 mm 1 mps 738 mmHg 63%
    19:00 +13°C° 0 mm 1 mps 738 mmHg 64%
    20:00 +12°C° 0 mm 2 mps 738 mmHg 64%
    21:00 +12°C° 0 mm 2 mps 738 mmHg 65%
    22:00 +12°C° 0 mm 2 mps 738 mmHg 65%
    23:00 +11°C° 0 mm 3 mps 737 mmHg 66%
    Mostrar más